Weather History for KUUU - August, 2014

Change the Weather History Date:

Tuesday, August 26, 2014

  Actual Average Record
Temperature  
Mean Temperature 70 °F -  
Max Temperature 80 °F 77 °F 86 °F (1959)
Min Temperature 61 °F 60 °F 46 °F (1981)
Cooling Degree Days 6    
Growing Degree Days 20 (Base 50)    
Moisture  
Dew Point 61 °F    
Average Humidity 75    
Maximum Humidity 93    
Minimum Humidity 54    
Precipitation  
Precipitation 0.00 in - - ()
Sea Level Pressure  
Sea Level Pressure 30.13 in    
Wind  
Wind Speed 3 mph (South)    
Max Wind Speed 12 mph    
Max Gust Speed -    
Visibility 10 miles    
Events      
Averages and records for this station are not official NWS values.
T = Trace of Precipitation, MM = Missing Value Source: NWS Daily Summary

Daily Weather History Graph

Daily Weather History Graph

Search for Another Location

Airport or City:

Trip Planner

Search our weather history database for the weather conditions in past years. The results will help you decide how hot, cold, wet, or windy it might be!

Date:

Astronomy

Aug. 26, 2014 Rise Set
Actual Time 6:05 AM EDT 7:27 PM EDT
Civil Twilight 5:36 AM EDT 7:56 PM EDT
Nautical Twilight 5:01 AM EDT 8:31 PM EDT
Astronomical Twilight 4:24 AM EDT 9:08 PM EDT
Moon 7:04 AM EDT (8/26) 7:46 PM EDT (8/26)
Length of Visible Light 14h 20m
Length of Day
13h 22m
New Moon, 1% of the Moon is Illuminated
Aug 26
New Moon
Sep 2
First Quarter
Sep 8
Full
Sep 15
Last Quarter
Sep 24
New

Hourly Weather History & Observations

Time (EDT) Temp. Heat Index Dew Point Humidity Pressure Visibility Wind Dir Wind Speed Gust Speed Precip Events Conditions
12:53 AM 64.0 °F - 60.1 °F 87% 30.15 in 10.0 mi Calm Calm - N/A   Clear
1:53 AM 63.0 °F - 59.0 °F 87% 30.15 in 10.0 mi Calm Calm - N/A   Clear
2:53 AM 62.1 °F - 60.1 °F 93% 30.14 in 10.0 mi Calm Calm - N/A   Clear
3:53 AM 63.0 °F - 60.1 °F 90% 30.14 in 10.0 mi Calm Calm - N/A   Clear
5:53 AM 61.0 °F - 57.9 °F 90% 30.16 in 10.0 mi Calm Calm - N/A   Clear
6:53 AM 63.0 °F - 59.0 °F 87% 30.17 in 10.0 mi Calm Calm - N/A   Clear
8:53 AM 72.0 °F - 57.0 °F 59% 30.18 in 10.0 mi South 5.8 mph - N/A   Clear
9:53 AM 73.9 °F - 60.1 °F 62% 30.17 in 10.0 mi Calm Calm - N/A   Clear
11:53 AM 78.1 °F - 61.0 °F 56% 30.16 in 10.0 mi Variable 4.6 mph - N/A   Clear
12:53 PM 80.1 °F 81.5 °F 63.0 °F 56% 30.16 in 10.0 mi South 5.8 mph - N/A   Clear
1:53 PM 75.0 °F - 60.1 °F 60% 30.15 in 10.0 mi South 11.5 mph - N/A   Clear
2:53 PM 75.0 °F - 59.0 °F 57% 30.14 in 10.0 mi SSE 11.5 mph - N/A   Clear
3:53 PM 75.9 °F - 57.9 °F 54% 30.13 in 10.0 mi South 8.1 mph - N/A   Clear
5:53 PM 72.0 °F - 59.0 °F 64% 30.09 in 10.0 mi South 9.2 mph - N/A   Clear
6:53 PM 70.0 °F - 62.1 °F 76% 30.09 in 10.0 mi South 8.1 mph - N/A   Clear
7:53 PM 69.1 °F - 61.0 °F 75% 30.09 in 10.0 mi South 5.8 mph - N/A   Clear
8:53 PM 68.0 °F - 62.1 °F 81% 30.10 in 10.0 mi SSW 4.6 mph - N/A   Clear
9:53 PM 68.0 °F - 63.0 °F 84% 30.10 in 10.0 mi SSW 5.8 mph - N/A   Clear
10:53 PM 68.0 °F - 64.0 °F 87% 30.10 in 10.0 mi SSW 3.5 mph - N/A   Clear
11:53 PM 68.0 °F - 64.9 °F 90% 30.09 in 10.0 mi Calm Calm - N/A   Clear